MEASAT-3A

Last updated on Sat Aug 15 2026 00:02:58 GMT+0000 (Coordinated Universal Time)

1 35362U 09032A 26226.58966689 .00000000 00000+0 00000+0 0 9996 2 35362 0.0126 339.0958 0002339 155.9155 200.2608 1.00270821 8619
UTC large
Height (km)
Speed (km/s)
/
Latitude / Longitude
Inclination (degrees)
Orbital Period (minutes)
Azimuth
Elevation
Range (km)
Doppler Factor

Next 0 passes for location: London (51.5072 / 0.1276)

No passes found over London.
MEASAT-3A